TimeEDT,TemperatureF,Dew PointF,Humidity,Sea Level PressureIn,VisibilityMPH,Wind Direction,Wind SpeedMPH,Gust SpeedMPH,PrecipitationIn,Events,Conditions,WindDirDegrees,DateUTC
12:51 AM,46.0,32.0,58,30.48,10.0,NE,9.2,-,N/A,,Overcast,50,2013-04-23 04:51:00
1:51 AM,44.1,32.0,63,30.46,10.0,East,15.0,21.9,N/A,,Mostly Cloudy,80,2013-04-23 05:51:00
2:05 AM,44.6,32.0,61,30.46,10.0,ENE,10.4,-,N/A,,Mostly Cloudy,70,2013-04-23 06:05:00
2:39 AM,44.6,33.8,66,30.44,10.0,ENE,9.2,-,N/A,,Mostly Cloudy,70,2013-04-23 06:39:00
2:51 AM,44.1,33.1,65,30.43,10.0,ENE,6.9,-,N/A,,Mostly Cloudy,60,2013-04-23 06:51:00
3:51 AM,43.0,33.1,68,30.42,10.0,ENE,10.4,-,N/A,,Mostly Cloudy,60,2013-04-23 07:51:00
4:19 AM,42.8,33.8,70,30.41,10.0,NNE,13.8,-,N/A,,Mostly Cloudy,30,2013-04-23 08:19:00
4:48 AM,42.8,33.8,70,30.40,10.0,NE,12.7,-,N/A,,Mostly Cloudy,50,2013-04-23 08:48:00
4:51 AM,42.1,33.1,70,30.40,10.0,NE,13.8,-,N/A,,Mostly Cloudy,40,2013-04-23 08:51:00
5:51 AM,41.0,30.9,67,30.40,10.0,NNE,13.8,-,N/A,,Overcast,30,2013-04-23 09:51:00
6:45 AM,41.0,30.2,65,30.39,10.0,NNE,13.8,-,N/A,,Overcast,30,2013-04-23 10:45:00
6:51 AM,41.0,32.0,70,30.39,10.0,NNE,15.0,-,N/A,,Overcast,30,2013-04-23 10:51:00
7:51 AM,42.1,32.0,67,30.38,10.0,NNE,13.8,-,N/A,,Overcast,20,2013-04-23 11:51:00
8:51 AM,43.0,33.1,68,30.37,10.0,North,12.7,-,N/A,,Overcast,10,2013-04-23 12:51:00
9:51 AM,43.0,36.0,76,30.37,10.0,NE,11.5,-,N/A,,Overcast,40,2013-04-23 13:51:00
10:12 AM,42.8,37.4,81,30.36,5.0,North,15.0,-,0.00,Rain,Light Rain,10,2013-04-23 14:12:00
10:41 AM,42.8,39.2,87,30.35,3.0,North,15.0,-,0.00,Rain,Light Rain,10,2013-04-23 14:41:00
10:51 AM,43.0,39.0,86,30.35,3.0,North,13.8,-,0.00,Rain,Light Rain,10,2013-04-23 14:51:00
10:58 AM,42.8,39.2,87,30.35,3.0,North,11.5,-,0.00,Rain,Light Rain,10,2013-04-23 14:58:00
11:26 AM,42.8,39.2,87,30.34,2.5,NNE,11.5,-,0.00,Rain,Light Rain,30,2013-04-23 15:26:00
11:35 AM,42.8,39.2,87,30.34,2.0,NNE,11.5,-,0.00,Rain,Light Rain,30,2013-04-23 15:35:00
11:47 AM,42.8,41.0,93,30.33,2.0,NNE,12.7,-,0.01,Rain,Light Rain,20,2013-04-23 15:47:00
11:51 AM,43.0,41.0,93,30.33,2.0,NNE,12.7,-,0.01,Rain,Light Rain,20,2013-04-23 15:51:00
12:11 PM,44.6,41.0,87,30.32,3.0,NNE,13.8,-,0.00,Rain,Light Rain,20,2013-04-23 16:11:00
12:19 PM,44.6,41.0,87,30.32,9.0,NNE,12.7,-,0.00,,Overcast,30,2013-04-23 16:19:00
12:51 PM,45.0,41.0,86,30.30,9.0,NNE,12.7,-,0.00,,Overcast,20,2013-04-23 16:51:00
12:58 PM,44.6,41.0,87,30.29,10.0,NNE,13.8,-,N/A,,Overcast,20,2013-04-23 16:58:00
1:48 PM,46.4,39.2,76,30.27,10.0,North,12.7,-,N/A,,Overcast,10,2013-04-23 17:48:00
1:51 PM,46.9,39.9,77,30.26,10.0,North,13.8,-,N/A,,Overcast,10,2013-04-23 17:51:00
2:51 PM,46.9,39.0,74,30.24,10.0,North,13.8,-,N/A,,Overcast,10,2013-04-23 18:51:00
3:51 PM,48.9,39.0,69,30.23,10.0,NNE,11.5,-,N/A,,Overcast,20,2013-04-23 19:51:00
4:51 PM,50.0,39.9,68,30.23,10.0,North,10.4,-,N/A,,Overcast,360,2013-04-23 20:51:00
5:51 PM,52.0,39.9,63,30.19,10.0,NNE,12.7,-,N/A,,Mostly Cloudy,20,2013-04-23 21:51:00
6:19 PM,51.8,41.0,67,30.19,10.0,North,9.2,-,N/A,,Mostly Cloudy,10,2013-04-23 22:19:00
6:51 PM,52.0,39.9,63,30.18,10.0,North,9.2,-,N/A,,Mostly Cloudy,350,2013-04-23 22:51:00
7:51 PM,51.1,39.9,66,30.16,10.0,North,12.7,-,N/A,,Mostly Cloudy,10,2013-04-23 23:51:00
8:51 PM,51.1,39.9,66,30.13,10.0,NNE,12.7,-,N/A,,Mostly Cloudy,20,2013-04-24 00:51:00
9:24 PM,51.8,39.2,62,30.15,10.0,North,8.1,-,N/A,,Mostly Cloudy,360,2013-04-24 01:24:00
9:51 PM,51.1,39.9,66,30.15,10.0,North,10.4,-,N/A,,Mostly Cloudy,360,2013-04-24 01:51:00
10:51 PM,48.9,39.0,69,30.12,10.0,NW,6.9,-,N/A,,Scattered Clouds,320,2013-04-24 02:51:00
11:51 PM,48.0,39.0,71,30.12,10.0,NNW,6.9,-,N/A,,Partly Cloudy,330,2013-04-24 03:51:00